Regional Weather Roundup
Issued by NWS

Home | Current Version | Previous Version | Text Only | Print | Product List | Glossary On
Versions: 1 2 3 4 5 6 7 8 9 10 11 12 13 14 15 16 17 18 19 20 21 22 23 24 25 26 27 28 29 30 31 32 33 34 35 36 37 38 39 40 41 42 43 44 45 46 47 48 49 50
000
ASUS45 KABQ 250310
RWRNM
WEATHER ROUNDUP FOR NEW MEXICO
NATIONAL WEATHER SERVICE ALBUQUERQUE NM
900 PM MDT THU APR 24 2014

NOTE: "FAIR" MEANS FEW OR NO CLOUDS BELOW 12,000 FEET AGL WITH NO
       SIGNIFICANT WEATHER OR OBSTRUCTIONS TO VISION.

      THIS PRODUCT IS RELEASED AS TWO VERSIONS.  ONE VERSION NEAR
      THE TOP OF THE HOUR CONTAINING PRELIMINARY DATA FROM ALBUQUERQUE
      AND OTHER STATIONS.  A FINAL VERSION WITH ADDITIONAL DATA IS
      ISSUED ABOUT 10 MINUTES AFTER THE HOUR.

NMZ501-503-504-510>518-250400-
NORTHWEST PLATEAU/NORTHCENTRAL MOUNTAINS

CITY           SKY/WX    TMP DP  RH WIND       PRES   REMARKS
FARMINGTON     CLEAR     54   4  13 N3        30.02R
LOS ALAMOS     CLEAR     55  -6   8 CALM      30.11R
SANTA FE       CLEAR     49 -10   8 N6        30.06R
TAOS           CLEAR     43  -8  11 W10       30.12R
ANGEL FIRE     FAIR      48  -6  10 SW3       30.13R

$$
NMZ402-403-502-505>509-250400-
WESTCENTRAL MOUNTAINS/SOUTHWEST MOUNTAINS

CITY           SKY/WX    TMP DP  RH WIND       PRES   REMARKS
GALLUP         CLEAR     52  -2  11 NE5       30.07R
GRANTS         PTCLDY    55  -2   9 N6        30.09R
SILVER CITY    CLEAR     54  10  17 NW5       30.06R

$$
NMZ407-409-411-412-250400-
SOUTHERN DESERTS

CITY           SKY/WX    TMP DP  RH WIND       PRES   REMARKS
LORDSBURG      FAIR      63  19  19 SW3       29.97R
DEMING         CLEAR     68  20  16 NW6       29.97R
LAS CRUCES     PTCLDY    64   8  11 CALM      30.00R
HOLLOMAN AFB   CLEAR     70   6   8 SE10      29.97
ALAMOGORDO     CLEAR     61   9  12 SE9       29.99R
T OR C         CLEAR     71   6   8 SW14      29.97R

$$
NMZ519>523-250400-
CENTRAL VALLEYS/CENTRAL HIGHLANDS

CITY           SKY/WX    TMP DP  RH WIND       PRES   REMARKS
ALBUQUERQUE    PTCLDY    65   3   8 N7        30.03R
DOUBLE EAGLE   PTCLDY    61   1   9 CALM      30.05S
MORIARTY ARPT  FAIR      46   7  20 NW7       30.07S
CLINES CORNERS CLEAR     51   8  17 NW8       30.09R
BELEN          FAIR      58  11  15 S6        30.00S
SOCORRO        FAIR      65  14  14 SE9       29.98R

$$
NMZ524>526-539-540-250400-
SOUTHCENTRAL MOUNTAINS

CITY           SKY/WX    TMP DP  RH WIND       PRES   REMARKS
RUIDOSO        PTCLDY    55   5  13 SW8       30.14R

$$
NMZ527>531-250400-
NORTHEAST HIGHLANDS/NORTHEAST PLAINS

CITY           SKY/WX    TMP DP  RH WIND       PRES   REMARKS
LAS VEGAS      CLEAR     51 -17   5 S8        30.05R
RATON          CLEAR     56   1  10 W14       29.97R
CLAYTON        CLEAR     54  18  24 S15       29.95R

$$
NMZ532>537-250400-
EASTCENTRAL PLAINS

CITY           SKY/WX    TMP DP  RH WIND       PRES   REMARKS
TUCUMCARI      PTCLDY    63  24  22 S12       29.93R
CANNON AFB     NOT AVBL
CLOVIS AIRPORT PTCLDY    55  28  35 S8        30.02R

$$
NMZ028-029-538-250400-
SOUTHEAST PLAINS

CITY           SKY/WX    TMP DP  RH WIND       PRES   REMARKS
ROSWELL        CLEAR     63  23  21 S7        29.95R
ARTESIA        CLEAR     66  23  19 S13       29.96S
CARLSBAD       PTCLDY    67  23  19 S7        29.95R
HOBBS          MOCLDY    59  23  25 E7        30.00S


$$



USA.gov is the U.S. government's official web portal to all federal, state and local government web resources and services.